| time (UTC) | temp F | wind direction | speed knots | gust knots | rain 1hr in | rain 24hr in | rain mn in | humidity % | barometer mb |
| 20260906130241 | 68 | 22 | 0.9 | 1.7 | 0.00 | 0.00 | 0.00 | 99 | 1083.4 |
| 20260906125257 | 67 | 22 | 0.0 | 0.0 | 0.00 | 0.00 | 0.00 | 98 | 1083.3 |
| 20260906124340 | 66 | 22 | 0.0 | 0.0 | 0.00 | 0.00 | 0.00 | 98 | 1083.2 |
| 20260906122359 | 65 | 22 | 0.0 | 0.0 | 0.00 | 0.00 | 0.00 | 98 | 1083.1 |
| 20260906120557 | 65 | 22 | 0.0 | 0.0 | 0.00 | 0.00 | 0.00 | 99 | 1082.9 |
| 20260906115600 | 65 | 22 | 0.0 | 0.0 | 0.00 | 0.00 | 0.00 | 99 | 1082.8 |
| 20260906113657 | 65 | 22 | 0.9 | 0.9 | 0.00 | 0.00 | 0.00 | 98 | 1082.3 |
| 20260906111757 | 65 | 22 | 0.0 | 0.0 | 0.00 | 0.00 | 0.00 | 99 | 1082.3 |
| 20260906110755 | 65 | 22 | 0.0 | 0.0 | 0.00 | 0.00 | 0.00 | 99 | 1082.3 |
| 20260906104857 | 65 | 22 | 0.0 | 0.9 | 0.00 | 0.00 | 0.00 | 98 | 1082.1 |
| 20260906103956 | 65 | 22 | 0.9 | 0.9 | 0.00 | 0.00 | 0.00 | 99 | 1081.9 |
| 20260906102957 | 65 | 22 | 0.9 | 1.7 | 0.00 | 0.00 | 0.00 | 99 | 1082.0 |
| 20260906102056 | 65 | 22 | 0.9 | 0.9 | 0.00 | 0.00 | 0.00 | 98 | 1081.8 |
| 20260906101942 | 65 | 22 | 0.0 | 0.9 | 0.00 | 0.00 | 0.00 | 98 | 1081.8 |
| 20260906100957 | 65 | 22 | 1.7 | 2.6 | 0.00 | 0.00 | 0.00 | 98 | 1081.6 |
| 20260906095100 | 66 | 22 | 0.9 | 1.7 | 0.00 | 0.00 | 0.00 | 98 | 1081.6 |
| 20260906093157 | 66 | 22 | 0.0 | 0.0 | 0.00 | 0.00 | 0.00 | 97 | 1081.7 |
| 20260906092159 | 66 | 22 | 0.9 | 2.6 | 0.00 | 0.00 | 0.00 | 97 | 1081.6 |
| 20260906091242 | 66 | 22 | 0.0 | 1.7 | 0.00 | 0.00 | 0.00 | 98 | 1081.3 |
| 20260906090257 | 65 | 22 | 1.7 | 4.3 | 0.00 | 0.00 | 0.00 | 97 | 1081.5 |
| 20260906085258 | 65 | 22 | 0.9 | 2.6 | 0.00 | 0.00 | 0.00 | 98 | 1081.4 |
| 20260906084357 | 65 | 22 | 0.9 | 1.7 | 0.00 | 0.00 | 0.00 | 97 | 1081.5 |
| 20260906082457 | 65 | 22 | 0.0 | 0.0 | 0.00 | 0.00 | 0.00 | 97 | 1081.5 |
| 20260906081555 | 65 | 22 | 0.0 | 0.0 | 0.00 | 0.00 | 0.00 | 97 | 1081.4 |
| 20260906080556 | 65 | 22 | 0.0 | 0.0 | 0.00 | 0.00 | 0.00 | 97 | 1081.3 |
| 20260906075641 | 65 | 22 | 0.0 | 0.0 | 0.00 | 0.00 | 0.00 | 96 | 1081.3 |
| 20260906075557 | 65 | 22 | 0.0 | 0.0 | 0.00 | 0.00 | 0.00 | 96 | 1081.2 |
| 20260906074557 | 65 | 22 | 0.0 | 0.0 | 0.00 | 0.00 | 0.00 | 97 | 1081.4 |
| 20260906073557 | 65 | 22 | 0.0 | 0.0 | 0.00 | 0.00 | 0.00 | 96 | 1081.4 |
| 20260906072657 | 65 | 22 | 0.0 | 0.0 | 0.00 | 0.00 | 0.00 | 97 | 1081.5 |
| 20260906071739 | 66 | 22 | 0.0 | 0.0 | 0.00 | 0.00 | 0.00 | 97 | 1081.4 |
| 20260906065758 | 66 | 22 | 0.0 | 0.0 | 0.00 | 0.00 | 0.00 | 96 | 1081.4 |
| 20260906064756 | 66 | 22 | 0.0 | 0.0 | 0.00 | 0.00 | 0.00 | 96 | 1081.6 |
| 20260906063741 | 66 | 22 | 0.0 | 0.0 | 0.00 | 0.00 | 0.00 | 95 | 1081.2 |
| 20260906062756 | 66 | 22 | 0.0 | 0.0 | 0.00 | 0.00 | 0.00 | 96 | 1081.5 |
| 20260906061756 | 66 | 22 | 0.0 | 0.0 | 0.00 | 0.00 | 0.00 | 96 | 1081.5 |
| 20260906060840 | 67 | 22 | 0.0 | 0.0 | 0.00 | 0.00 | 0.00 | 96 | 1081.5 |
| 20260906055858 | 67 | 22 | 0.0 | 0.0 | 0.00 | 0.00 | 0.00 | 96 | 1081.5 |
| 20260906052858 | 68 | 22 | 0.0 | 0.0 | 0.00 | 0.00 | 0.00 | 95 | 1081.2 |
| 20260906050858 | 69 | 22 | 0.0 | 0.0 | 0.00 | 0.00 | 0.00 | 94 | 1081.1 |
| 20260906045957 | 69 | 22 | 0.0 | 0.0 | 0.00 | 0.00 | 0.00 | 95 | 1080.9 |
| 20260906044055 | 70 | 22 | 0.0 | 0.9 | 0.00 | 0.00 | 0.00 | 94 | 1080.8 |
| 20260906043056 | 70 | 337 | 0.0 | 0.0 | 0.00 | 0.00 | 0.00 | 94 | 1080.8 |
| 20260906040253 | 70 | 22 | 0.0 | 0.9 | 0.00 | 0.00 | 0.00 | 95 | 1080.4 |
| 20260906035256 | 70 | 22 | 0.9 | 1.7 | 0.00 | 0.00 | 0.00 | 95 | 1080.3 |
| 20260906034257 | 69 | 22 | 1.7 | 2.6 | 0.00 | 0.00 | 0.00 | 95 | 1080.3 |
| 20260906033256 | 69 | 17 | 2.6 | 4.3 | 0.00 | 0.00 | 0.00 | 93 | 1080.3 |
| 20260906032254 | 69 | 22 | 1.7 | 4.3 | 0.00 | 0.00 | 0.00 | 94 | 1080.3 |
| 20260906031339 | 69 | 9 | 1.7 | 3.5 | 0.00 | 0.00 | 0.00 | 94 | 1080.4 |
| 20260906030357 | 69 | 22 | 1.7 | 2.6 | 0.00 | 0.00 | 0.00 | 92 | 1080.2 |
| 20260906025355 | 69 | 22 | 0.0 | 0.9 | 0.00 | 0.00 | 0.00 | 92 | 1080.3 |
| 20260906024438 | 69 | 31 | 2.6 | 5.2 | 0.00 | 0.00 | 0.00 | 91 | 1080.2 |
| 20260906023456 | 70 | 351 | 1.7 | 3.5 | 0.00 | 0.00 | 0.00 | 92 | 1080.1 |
| 20260906021555 | 70 | 48 | 1.7 | 4.3 | 0.00 | 0.00 | 0.00 | 91 | 1080.1 |
| 20260906020555 | 70 | 25 | 1.7 | 5.2 | 0.00 | 0.00 | 0.00 | 91 | 1080.2 |
| 20260906015556 | 71 | 22 | 1.7 | 2.6 | 0.00 | 0.00 | 0.00 | 91 | 1080.3 |
| 20260906013556 | 71 | 360 | 0.9 | 3.5 | 0.00 | 0.00 | 0.00 | 90 | 1080.2 |
| 20260906012556 | 71 | 22 | 0.0 | 0.9 | 0.00 | 0.00 | 0.00 | 91 | 1080.1 |
| 20260906011554 | 71 | 14 | 2.6 | 5.2 | 0.00 | 0.00 | 0.00 | 90 | 1080.3 |
| 20260906010556 | 71 | 22 | 0.9 | 4.3 | 0.00 | 0.00 | 0.00 | 90 | 1080.2 |
| 20260906005637 | 71 | 22 | 1.7 | 3.5 | 0.00 | 0.00 | 0.00 | 91 | 1080.1 |
| 20260906004656 | 71 | 34 | 3.5 | 9.6 | 0.00 | 0.00 | 0.00 | 91 | 1079.8 |
| 20260906003755 | 71 | 21 | 3.5 | 6.1 | 0.00 | 0.00 | 0.00 | 90 | 1079.7 |
| 20260906002756 | 71 | 359 | 1.7 | 4.3 | 0.00 | 0.00 | 0.00 | 90 | 1079.7 |
| 20260906001839 | 71 | 30 | 2.6 | 7.0 | 0.00 | 0.00 | 0.00 | 89 | 1079.7 |
| 20260906000855 | 71 | 22 | 3.5 | 7.8 | 0.00 | 0.00 | 0.00 | 89 | 1079.5 |
| 20260905235856 | 72 | 21 | 5.2 | 9.6 | 0.00 | 0.00 | 0.00 | 87 | 1079.6 |
| 20260905234955 | 72 | 34 | 1.7 | 4.3 | 0.00 | 0.00 | 0.00 | 88 | 1079.7 |
| 20260905233138 | 72 | 30 | 5.2 | 13.0 | 0.00 | 0.00 | 0.00 | 88 | 1079.7 |
| 20260905232155 | 71 | 35 | 2.6 | 5.2 | 0.00 | 0.00 | 0.00 | 89 | 1079.6 |
| 20260905230254 | 72 | 22 | 0.9 | 1.7 | 0.00 | 0.00 | 0.00 | 87 | 1079.6 |
| 20260905224339 | 72 | 24 | 4.3 | 6.1 | 0.00 | 0.00 | 0.00 | 85 | 1079.5 |
| 20260905222355 | 74 | 52 | 3.5 | 7.0 | 0.00 | 0.00 | 0.00 | 84 | 1079.3 |
| 20260905221355 | 74 | 23 | 3.5 | 7.8 | 0.00 | 0.00 | 0.00 | 82 | 1079.2 |
| 20260905215455 | 76 | 71 | 1.7 | 3.5 | 0.00 | 0.00 | 0.00 | 81 | 1078.9 |
| 20260905214553 | 77 | 22 | 2.6 | 4.3 | 0.00 | 0.00 | 0.00 | 80 | 1078.9 |
| 20260905213638 | 77 | 61 | 2.6 | 6.1 | 0.00 | 0.00 | 0.00 | 78 | 1078.7 |
| 20260905212656 | 78 | 31 | 3.5 | 7.0 | 0.00 | 0.00 | 0.00 | 77 | 1078.5 |
| 20260905211754 | 77 | 24 | 2.6 | 6.1 | 0.00 | 0.00 | 0.00 | 78 | 1078.5 |
| 20260905210755 | 77 | 44 | 0.0 | 2.6 | 0.00 | 0.00 | 0.00 | 78 | 1078.5 |
| 20260905205757 | 78 | 31 | 2.6 | 4.3 | 0.00 | 0.00 | 0.00 | 78 | 1078.6 |
| 20260905204837 | 79 | 41 | 2.6 | 6.1 | 0.00 | 0.00 | 0.00 | 77 | 1078.5 |
| 20260905203856 | 80 | 44 | 3.5 | 6.1 | 0.00 | 0.00 | 0.00 | 76 | 1078.4 |
| 20260905200955 | 81 | 18 | 3.5 | 8.7 | 0.00 | 0.00 | 0.00 | 70 | 1078.4 |
| 20260905191954 | 78 | 22 | 0.9 | 5.2 | 0.00 | 0.00 | 0.00 | 81 | 1078.8 |
| 20260905191038 | 78 | 9 | 1.7 | 5.2 | 0.00 | 0.00 | 0.00 | 83 | 1078.9 |
| 20260905184056 | 76 | 17 | 1.7 | 3.5 | 0.00 | 0.00 | 0.00 | 86 | 1079.2 |
| 20260905183055 | 76 | 348 | 0.9 | 3.5 | 0.00 | 0.00 | 0.00 | 85 | 1079.4 |
| 20260905182138 | 75 | 67 | 0.9 | 1.7 | 0.00 | 0.00 | 0.00 | 86 | 1079.2 |
| 20260905181138 | 76 | 20 | 2.6 | 4.3 | 0.00 | 0.00 | 0.00 | 85 | 1079.2 |
| 20260905180153 | 76 | 18 | 3.5 | 3.5 | 0.00 | 0.00 | 0.00 | 85 | 1079.2 |
| 20260905175153 | 76 | 22 | 1.7 | 4.3 | 0.00 | 0.00 | 0.00 | 84 | 1079.0 |
| 20260905174239 | 76 | 20 | 3.5 | 7.8 | 0.00 | 0.00 | 0.00 | 84 | 1078.8 |
| 20260905173255 | 76 | 16 | 1.7 | 7.8 | 0.00 | 0.00 | 0.00 | 84 | 1079.0 |
| 20260905172338 | 76 | 32 | 2.6 | 5.2 | 0.00 | 0.00 | 0.00 | 86 | 1078.9 |
| 20260905170353 | 75 | 22 | 0.0 | 1.7 | 0.00 | 0.02 | 0.00 | 87 | 1079.3 |
| 20260905165354 | 75 | 5 | 2.6 | 6.1 | 0.00 | 0.08 | 0.00 | 88 | 1079.2 |
| 20260905164354 | 75 | 22 | 0.0 | 0.9 | 0.00 | 0.22 | 0.00 | 88 | 1079.5 |
| 20260905163439 | 75 | 2 | 0.9 | 2.6 | 0.00 | 0.22 | 0.00 | 88 | 1079.3 |
| 20260905162539 | 75 | 22 | 2.6 | 5.2 | 0.00 | 0.22 | 0.00 | 88 | 1079.3 |
| 20260905161554 | 75 | 64 | 1.7 | 4.3 | 0.00 | 0.22 | 0.00 | 87 | 1079.3 |
| 20260905160553 | 75 | 349 | 0.9 | 4.3 | 0.00 | 0.22 | 0.00 | 87 | 1079.2 |
| 20260905155555 | 75 | 22 | 2.6 | 6.1 | 0.00 | 0.22 | 0.00 | 87 | 1079.2 |
| 20260905153653 | 75 | 22 | 0.9 | 3.5 | 0.00 | 0.22 | 0.00 | 87 | 1078.9 |
| 20260905152655 | 75 | 23 | 4.3 | 7.0 | 0.00 | 0.22 | 0.00 | 88 | 1078.8 |
| 20260905151653 | 75 | 28 | 1.7 | 4.3 | 0.00 | 0.22 | 0.00 | 90 | 1078.8 |
| 20260905150654 | 74 | 26 | 1.7 | 3.5 | 0.00 | 0.22 | 0.00 | 91 | 1078.7 |
| 20260905145656 | 74 | 21 | 3.5 | 7.0 | 0.00 | 0.22 | 0.00 | 90 | 1078.6 |
| 20260905144654 | 75 | 22 | 0.9 | 1.7 | 0.00 | 0.22 | 0.00 | 91 | 1078.6 |
| 20260905143655 | 75 | 23 | 0.9 | 2.6 | 0.00 | 0.22 | 0.00 | 91 | 1078.5 |
| 20260905142656 | 75 | 3 | 0.9 | 4.3 | 0.00 | 0.22 | 0.00 | 91 | 1078.5 |
| 20260905140654 | 74 | 18 | 1.7 | 5.2 | 0.00 | 0.22 | 0.00 | 93 | 1078.3 |
| 20260905135752 | 74 | 45 | 0.9 | 2.6 | 0.00 | 0.22 | 0.00 | 94 | 1078.3 |
| 20260905134752 | 73 | 32 | 1.7 | 2.6 | 0.00 | 0.22 | 0.00 | 95 | 1078.3 |
| 20260905133755 | 73 | 26 | 1.7 | 3.5 | 0.00 | 0.22 | 0.00 | 96 | 1078.3 |
| 20260905132752 | 74 | 22 | 0.9 | 1.7 | 0.00 | 0.22 | 0.00 | 96 | 1078.5 |
| 20260905131757 | 73 | 17 | 2.6 | 4.3 | 0.00 | 0.22 | 0.00 | 97 | 1078.6 |
| 20260905130854 | 73 | 21 | 2.6 | 6.1 | 0.00 | 0.22 | 0.00 | 98 | 1078.2 |